Tracking 25370 objects as of 25-Jan-2022
HD Live streaming from Space Station
objects crossing your sky now

EDUSAT

Track EDUSAT now!
10-day predictions
EDUSAT is classified as:


NORAD ID: 37788
Int'l Code: 2011-044A
Perigee: 637.4 km
Apogee: 691.2 km
Inclination: 98.4 °
Period: 97.9 minutes
Semi major axis: 7035 km
RCS: 0.1421 m2 (medium)
Launch date: August 17, 2011
Source: Italy (IT)
Launch site: Orenburg, Russia (OREN)

EduSat is a microsatellite built by the University of Rome.
aabbcc
Your satellite tracking list
Your tracking list is empty




NASA's NSSDC Master Catalog

Two Line Element Set (TLE):
1 37788U 11044A   22025.14353934  .00000272  00000-0  52549-4 0  9996
2 37788  98.4321 212.0852 0038190 167.4095 313.2165 14.71229801560293
Source of the keplerian elements: AFSPC